This is the latest recevied weather packets stored in our database for station/object K0SDS. If no packets are shown the sender has not sent any weather packets the latest 1 day(s).
| Time | Temp. | Humidity | Pressure | Rain* | Wind** | Luminosity | Snow |
|---|---|---|---|---|---|---|---|
| 1778101354 | 17.78° C | 37% | 1017.7 hPa | 0 mm | - | 525 W/m² | - |
| 1778100141 | 16.67° C | 35% | 1017.9 hPa | 0 mm | - | 575 W/m² | - |
| 1778099536 | 16.67° C | 37% | 1018.2 hPa | 0 mm | - | 580 W/m² | - |
| 1778098317 | 16.11° C | 40% | 1018.7 hPa | 0 mm | - | 580 W/m² | - |
| 1778097711 | 15.56° C | 37% | 1018.5 hPa | 0 mm | - | 596 W/m² | - |
| 1778095285 | 16.11° C | 38% | 1018.4 hPa | 0 mm | - | 629 W/m² | - |
| 1778094982 | 15.56° C | 36% | 1018.7 hPa | 0 mm | - | 637 W/m² | - |
| 1778093163 | 15.56° C | 35% | 1018.8 hPa | 0 mm | - | 684 W/m² | - |
| 1778089822 | 14.44° C | 45% | 1019 hPa | 0 mm | - | 722 W/m² | - |
| 1778089520 | 15° C | 38% | 1019.2 hPa | 0 mm | - | 537 W/m² | - |
| 1778086176 | 13.89° C | 42% | 1019.7 hPa | 0 mm | - | 377 W/m² | - |
| 1778084653 | 13.33° C | 46% | 1019.5 hPa | 0 mm | - | 409 W/m² | - |
| 1778083739 | 13.33° C | 43% | 1019.2 hPa | 0 mm | - | 567 W/m² | - |
| 1778083134 | 14.44° C | 43% | 1019.1 hPa | 0 mm | - | 289 W/m² | - |
| 1778081103 | 13.33° C | 51% | 1019 hPa | 0 mm | - | 687 W/m² | - |
| 1778079891 | 12.78° C | 52% | 1019.1 hPa | 0 mm | - | 551 W/m² | - |
| 1778078679 | 12.78° C | 61% | 1019 hPa | 0 mm | - | 459 W/m² | - |
| 1778077470 | 11.67° C | 64% | 1018.9 hPa | 0 mm | - | 319 W/m² | - |
| 1778076564 | 11.11° C | 62% | 1018.9 hPa | 0 mm | - | 242 W/m² | - |
| 1778075957 | 10.56° C | 64% | 1018.7 hPa | 0 mm | - | 211 W/m² | - |
| 1778074137 | 9.44° C | 71% | 1018.3 hPa | 0 mm | - | 109 W/m² | - |
| 1778072320 | 8.89° C | 76% | 1017.8 hPa | 0 mm | - | 95 W/m² | - |
| 1778072018 | 8.89° C | 81% | 1017.8 hPa | 0 mm | - | 81 W/m² | - |
| 1778071716 | 8.89° C | 84% | 1017.7 hPa | 0 mm | - | 74 W/m² | - |
| 1778069901 | 6.67° C | 91% | 1017.1 hPa | 0 mm | - | 46 W/m² | - |
* Rain latest hour (hover to see other rain measurements)
** Current wind speed in m/s (hover to see current wind gust speed)